contact:dominique.lefevre@mio.osupytheas.fr, maurice.libes@osupytheas.fr, didier.mallarino@osupytheas.fr
Project:EMSO http://www.emso-fr.org/EMSO-France
Depth: 2436.0 m
Title:EMSO Ligure Ouest : Data MII capteur AQUADOPP
Date,Latitude,Longitude,X_East,Y_North,Z_Up,Amplitude_X,Amplitude_Y,Amplitude_Z,Batterie,SoundSpeed,Heading,Pitch,Roll,Pressure,TIS,Speed,Direction
, degrees North, degrees East, m.s-1, m.s-1,m.s-1, 1, 1, 1, Volt, m.s-1, degree, degree, degree, dbar, degree_C, m.s-1, degree
2020-03-03T00:04:03,42.805,6.029,0.0,-0.001,-0.029,107.0,107.0,102.0,13.4,1505.3,327.4,-0.7,1.8,2470.394,13.31,0.001,180.0
2020-03-03T00:07:03,42.805,6.029,0.002,-0.013,-0.037,104.0,107.0,101.0,13.4,1505.3,324.3,-0.7,1.8,2470.364,13.32,0.013,171.3
2020-03-03T00:10:03,42.805,6.029,-0.018,0.016,-0.074,105.0,107.0,101.0,13.4,1505.3,327.0,-0.7,1.8,2470.384,13.32,0.024,311.6
2020-03-03T00:13:03,42.805,6.029,-0.028,-0.004,-0.049,104.0,109.0,104.0,13.3,1505.3,325.3,-0.7,1.8,2470.4,13.32,0.028,261.9
2020-03-03T00:16:03,42.805,6.029,0.021,-0.005,-0.038,105.0,110.0,102.0,13.4,1505.3,324.6,-0.7,1.8,2470.344,13.33,0.021,103.4
2020-03-03T00:19:03,42.805,6.029,0.007,-0.001,-0.021,105.0,109.0,103.0,13.3,1505.3,324.9,-0.7,1.8,2470.342,13.33,0.007,98.1
2020-03-03T00:22:03,42.805,6.029,0.009,0.005,-0.023,105.0,110.0,103.0,13.4,1505.3,324.8,-0.7,1.8,2470.352,13.33,0.01,60.9
2020-03-03T00:25:03,42.805,6.029,0.024,0.0,-0.011,105.0,108.0,103.0,13.4,1505.3,327.9,-0.7,1.8,2470.404,13.33,0.024,90.0
2020-03-03T00:28:03,42.805,6.029,0.013,0.0,-0.013,105.0,107.0,102.0,13.3,1505.3,326.6,-0.7,1.8,2470.357,13.33,0.013,90.0
2020-03-03T00:31:03,42.805,6.029,0.0,0.008,-0.016,106.0,109.0,102.0,13.4,1505.3,325.8,-0.7,1.8,2470.322,13.33,0.008,0.0
2020-03-03T00:34:03,42.805,6.029,-0.01,0.003,-0.052,105.0,108.0,101.0,13.4,1505.3,324.3,-0.7,1.9,2470.378,13.33,0.01,286.7
2020-03-03T00:37:03,42.805,6.029,-0.006,0.003,-0.026,104.0,107.0,101.0,13.4,1505.3,325.5,-0.7,1.8,2470.333,13.33,0.006,296.6
2020-03-03T00:40:03,42.805,6.029,-0.035,-0.019,0.002,105.0,106.0,104.0,13.4,1505.3,326.8,-0.7,1.8,2470.361,13.33,0.039,241.5
2020-03-03T00:43:03,42.805,6.029,-0.023,-0.01,-0.053,105.0,107.0,102.0,13.4,1505.3,324.6,-0.7,1.8,2470.327,13.33,0.025,246.5
2020-03-03T00:46:03,42.805,6.029,-0.044,-0.002,-0.071,105.0,107.0,101.0,13.4,1505.3,328.0,-0.7,1.8,2470.375,13.33,0.044,267.4
2020-03-03T00:49:03,42.805,6.029,-0.025,0.002,-0.076,105.0,107.0,102.0,13.3,1505.3,326.1,-0.7,1.8,2470.388,13.33,0.025,274.6
2020-03-03T00:52:03,42.805,6.029,0.014,-0.004,-0.028,105.0,106.0,102.0,13.3,1505.3,327.2,-0.7,1.8,2470.365,13.33,0.014,105.9
2020-03-03T00:55:03,42.805,6.029,0.009,-0.001,0.014,105.0,106.0,102.0,13.4,1505.3,326.1,-0.7,1.8,2470.413,13.33,0.009,96.3
2020-03-03T00:58:03,42.805,6.029,-0.009,-0.009,0.006,106.0,107.0,102.0,13.4,1505.3,327.5,-0.7,1.8,2470.38,13.33,0.012,225.0
2020-03-03T01:01:03,42.805,6.029,-0.029,0.005,-0.035,106.0,108.0,103.0,13.4,1505.3,323.5,-0.7,1.9,2470.377,13.33,0.029,279.8
2020-03-03T01:04:03,42.805,6.029,0.0,-0.004,-0.006,105.0,108.0,102.0,13.4,1505.3,325.0,-0.7,1.9,2470.354,13.33,0.004,180.0
2020-03-03T01:07:03,42.805,6.029,0.002,-0.021,-0.03,104.0,107.0,101.0,13.3,1505.3,328.0,-0.7,1.8,2470.339,13.33,0.021,174.6
2020-03-03T01:10:03,42.805,6.029,-0.004,-0.011,-0.022,105.0,107.0,103.0,13.4,1505.3,326.3,-0.8,1.8,2470.382,13.33,0.011,200.0
2020-03-03T01:13:03,42.805,6.029,0.013,0.004,-0.06,105.0,105.0,102.0,13.4,1505.3,326.2,-0.7,1.8,2470.341,13.33,0.013,72.9
2020-03-03T01:16:03,42.805,6.029,-0.026,0.0,-0.023,105.0,106.0,102.0,13.4,1505.3,325.2,-0.7,1.8,2470.344,13.33,0.026,270.0
2020-03-03T01:19:03,42.805,6.029,-0.017,0.014,-0.042,106.0,107.0,103.0,13.3,1505.3,326.7,-0.7,1.8,2470.326,13.33,0.022,309.5
2020-03-03T01:22:03,42.805,6.029,-0.022,0.008,-0.062,105.0,108.0,102.0,13.3,1505.3,323.2,-0.7,1.8,2470.348,13.33,0.023,290.0
2020-03-03T01:25:03,42.805,6.029,-0.021,0.009,-0.029,106.0,107.0,102.0,13.3,1505.3,326.0,-0.7,1.8,2470.363,13.33,0.022,293.2
2020-03-03T01:28:03,42.805,6.029,-0.002,-0.001,-0.04,105.0,107.0,102.0,13.4,1505.3,328.1,-0.7,1.9,2470.366,13.33,0.002,243.4
2020-03-03T01:31:03,42.805,6.029,0.013,-0.002,-0.063,106.0,107.0,101.0,13.4,1505.3,326.4,-0.7,1.8,2470.327,13.33,0.013,98.7
2020-03-03T01:34:03,42.805,6.029,-0.004,-0.007,-0.019,106.0,108.0,103.0,13.4,1505.3,323.8,-0.7,1.8,2470.338,13.33,0.008,209.7
2020-03-03T01:37:03,42.805,6.029,0.003,0.01,-0.013,107.0,106.0,102.0,13.4,1505.3,325.2,-0.7,1.8,2470.346,13.33,0.01,16.7
2020-03-03T01:40:03,42.805,6.029,0.02,-0.003,-0.013,106.0,106.0,103.0,13.4,1505.3,324.4,-0.7,1.8,2470.317,13.33,0.02,98.5
2020-03-03T01:43:03,42.805,6.029,0.009,-0.02,-0.035,105.0,106.0,102.0,13.4,1505.3,323.4,-0.7,1.8,2470.321,13.33,0.021,155.8
2020-03-03T01:46:03,42.805,6.029,-0.034,-0.005,-0.079,105.0,108.0,103.0,13.4,1505.3,328.4,-0.7,1.8,2470.321,13.33,0.034,261.6
2020-03-03T01:49:03,42.805,6.029,-0.032,0.01,-0.036,104.0,109.0,102.0,13.4,1505.3,326.5,-0.7,1.9,2470.334,13.33,0.033,287.4
2020-03-03T01:52:03,42.805,6.029,-0.005,0.008,-0.046,105.0,109.0,103.0,13.4,1505.3,324.8,-0.7,1.8,2470.385,13.33,0.009,328.0
2020-03-03T01:55:03,42.805,6.029,0.005,0.025,0.001,105.0,109.0,102.0,13.4,1505.3,324.9,-0.7,1.8,2470.332,13.33,0.025,11.3
2020-03-03T01:58:03,42.805,6.029,-0.03,0.0,-0.063,105.0,109.0,102.0,13.4,1505.3,324.7,-0.7,1.8,2470.315,13.33,0.03,270.0
2020-03-03T02:04:03,42.805,6.029,0.0,-0.01,-0.033,106.0,109.0,102.0,13.3,1505.3,327.0,-0.8,1.8,2470.368,13.31,0.01,180.0
2020-03-03T02:07:03,42.805,6.029,-0.015,0.015,-0.005,106.0,109.0,102.0,13.4,1505.3,326.9,-0.7,1.8,2470.347,13.32,0.021,315.0
2020-03-03T02:10:03,42.805,6.029,-0.013,0.013,-0.03,107.0,108.0,102.0,13.4,1505.3,326.3,-0.7,1.8,2470.352,13.32,0.018,315.0
2020-03-03T02:13:03,42.805,6.029,-0.007,0.008,-0.046,105.0,107.0,104.0,13.3,1505.3,326.3,-0.7,1.8,2470.334,13.32,0.01,318.8
2020-03-03T02:16:03,42.805,6.029,-0.005,0.006,-0.013,106.0,108.0,102.0,13.4,1505.3,325.3,-0.7,1.8,2470.364,13.32,0.007,320.2
2020-03-03T02:19:03,42.805,6.029,0.016,-0.003,-0.015,105.0,108.0,103.0,13.3,1505.3,323.2,-0.7,1.8,2470.338,13.33,0.016,100.6
2020-03-03T02:22:03,42.805,6.029,-0.004,-0.006,-0.016,107.0,107.0,102.0,13.4,1505.3,324.5,-0.7,1.8,2470.336,13.33,0.007,213.7
2020-03-03T02:25:03,42.805,6.029,-0.031,-0.01,-0.055,106.0,108.0,103.0,13.3,1505.3,324.6,-0.7,1.8,2470.323,13.33,0.032,252.1
2020-03-03T02:28:03,42.805,6.029,-0.001,0.009,-0.005,105.0,108.0,103.0,13.4,1505.3,327.8,-0.7,1.8,2470.287,13.33,0.009,353.7
2020-03-03T02:31:03,42.805,6.029,-0.024,0.001,-0.045,106.0,109.0,102.0,13.3,1505.3,327.3,-0.7,1.8,2470.32,13.33,0.024,272.4
2020-03-03T02:34:03,42.805,6.029,-0.012,0.003,-0.024,105.0,108.0,102.0,13.4,1505.3,325.4,-0.7,1.8,2470.316,13.33,0.012,284.0
2020-03-03T02:37:03,42.805,6.029,0.014,0.001,-0.014,106.0,108.0,102.0,13.4,1505.3,325.7,-0.7,1.9,2470.319,13.33,0.014,85.9
2020-03-03T02:40:03,42.805,6.029,-0.005,0.0,-0.014,106.0,107.0,107.0,13.4,1505.3,325.5,-0.7,1.9,2470.323,13.33,0.005,270.0
2020-03-03T02:43:03,42.805,6.029,0.015,-0.002,0.005,105.0,108.0,103.0,13.4,1505.3,327.8,-0.7,1.8,2470.307,13.33,0.015,97.6
2020-03-03T02:46:03,42.805,6.029,-0.01,0.003,-0.015,106.0,108.0,103.0,13.3,1505.3,323.8,-0.7,1.8,2470.347,13.33,0.01,286.7
2020-03-03T02:49:03,42.805,6.029,0.006,0.011,-0.022,104.0,108.0,102.0,13.3,1505.3,324.4,-0.7,1.8,2470.35,13.33,0.012,28.6
2020-03-03T02:52:03,42.805,6.029,-0.009,0.016,-0.033,105.0,106.0,104.0,13.4,1505.3,326.0,-0.7,1.8,2470.341,13.33,0.018,330.6
2020-03-03T02:55:03,42.805,6.029,0.006,0.019,-0.015,105.0,110.0,103.0,13.4,1505.3,325.9,-0.7,1.8,2470.306,13.33,0.019,17.5
2020-03-03T02:58:03,42.805,6.029,0.014,0.016,-0.046,105.0,109.0,103.0,13.4,1505.3,326.1,-0.7,1.8,2470.298,13.33,0.021,41.2
2020-03-03T03:01:03,42.805,6.029,-0.002,0.007,-0.032,105.0,108.0,103.0,13.4,1505.3,324.6,-0.7,1.8,2470.31,13.33,0.007,344.1
2020-03-03T03:04:03,42.805,6.029,-0.002,0.017,-0.054,106.0,108.0,102.0,13.3,1505.3,324.3,-0.7,1.8,2470.325,13.33,0.017,353.3
2020-03-03T03:07:03,42.805,6.029,-0.021,0.024,-0.041,106.0,108.0,102.0,13.4,1505.3,328.0,-0.7,1.9,2470.336,13.33,0.031,318.8
2020-03-03T03:10:03,42.805,6.029,-0.024,0.007,-0.077,106.0,109.0,103.0,13.4,1505.3,326.6,-0.7,1.9,2470.317,13.33,0.025,286.3
2020-03-03T03:13:03,42.805,6.029,-0.031,0.004,-0.035,106.0,108.0,102.0,13.3,1505.3,324.1,-0.7,1.9,2470.313,13.33,0.031,277.3
2020-03-03T03:16:03,42.805,6.029,-0.001,0.017,-0.026,106.0,109.0,103.0,13.4,1505.3,325.7,-0.7,1.8,2470.318,13.33,0.017,356.6
2020-03-03T03:19:03,42.805,6.029,-0.007,-0.005,-0.025,105.0,107.0,102.0,13.4,1505.3,323.5,-0.7,1.9,2470.35,13.33,0.008,234.5
2020-03-03T03:22:03,42.805,6.029,-0.028,-0.003,-0.04,105.0,107.0,102.0,13.3,1505.3,326.6,-0.7,1.8,2470.338,13.33,0.028,263.9
2020-03-03T03:25:03,42.805,6.029,-0.024,-0.003,-0.026,106.0,107.0,103.0,13.4,1505.3,326.0,-0.7,1.8,2470.338,13.33,0.024,262.9
2020-03-03T03:28:03,42.805,6.029,-0.022,0.019,-0.01,106.0,108.0,102.0,13.3,1505.3,324.5,-0.7,1.9,2470.262,13.33,0.029,310.8
2020-03-03T03:31:03,42.805,6.029,-0.046,0.012,-0.061,105.0,109.0,102.0,13.4,1505.3,325.4,-0.7,1.8,2470.277,13.33,0.047,284.6
2020-03-03T03:34:03,42.805,6.029,-0.024,-0.004,-0.026,105.0,108.0,103.0,13.4,1505.3,325.1,-0.7,1.8,2470.34,13.33,0.024,260.5
2020-03-03T03:37:03,42.805,6.029,-0.009,0.002,-0.051,106.0,108.0,102.0,13.4,1505.3,327.6,-0.7,1.8,2470.337,13.33,0.009,282.5
2020-03-03T03:40:03,42.805,6.029,-0.018,0.021,-0.004,106.0,107.0,102.0,13.3,1505.3,325.3,-0.7,1.8,2470.295,13.33,0.027,319.4
2020-03-03T03:43:03,42.805,6.029,-0.026,0.022,-0.032,105.0,108.0,101.0,13.3,1505.3,327.8,-0.7,1.9,2470.344,13.33,0.034,310.2
2020-03-03T03:46:03,42.805,6.029,-0.009,0.02,-0.02,106.0,108.0,102.0,13.4,1505.3,324.1,-0.7,1.8,2470.289,13.33,0.021,335.8
2020-03-03T03:49:03,42.805,6.029,-0.036,0.02,-0.024,105.0,109.0,102.0,13.4,1505.3,328.2,-0.7,1.9,2470.32,13.33,0.041,299.1
2020-03-03T03:52:03,42.805,6.029,0.003,0.024,-0.006,108.0,107.0,103.0,13.3,1505.3,325.4,-0.7,1.9,2470.281,13.33,0.024,7.1
2020-03-03T03:55:03,42.805,6.029,-0.017,0.025,-0.05,107.0,108.0,103.0,13.4,1505.3,323.5,-0.7,1.8,2470.303,13.33,0.03,325.8
2020-03-03T03:58:03,42.805,6.029,-0.014,0.041,-0.013,105.0,108.0,104.0,13.4,1505.3,324.5,-0.7,1.8,2470.295,13.33,0.043,341.1
2020-03-03T04:04:03,42.805,6.029,-0.041,0.015,-0.043,107.0,108.0,103.0,13.3,1505.3,324.6,-0.7,1.8,2470.299,13.32,0.043,290.1
2020-03-03T04:07:03,42.805,6.029,0.0,0.023,-0.003,105.0,107.0,103.0,13.4,1505.3,326.1,-0.7,1.8,2470.324,13.32,0.023,0.0
2020-03-03T04:10:03,42.805,6.029,-0.008,0.032,-0.014,105.0,108.0,103.0,13.4,1505.3,327.4,-0.7,1.8,2470.3,13.33,0.032,346.0
2020-03-03T04:13:03,42.805,6.029,-0.003,0.039,-0.047,106.0,107.0,101.0,13.4,1505.3,325.0,-0.6,1.8,2470.307,13.33,0.039,355.6
2020-03-03T04:16:03,42.805,6.029,-0.003,0.038,-0.055,104.0,108.0,101.0,13.4,1505.3,326.8,-0.7,1.8,2470.276,13.33,0.038,355.5
2020-03-03T04:19:03,42.805,6.029,-0.003,0.009,-0.05,104.0,107.0,102.0,13.4,1505.3,324.1,-0.7,1.8,2470.29,13.33,0.009,341.6
2020-03-03T04:22:03,42.805,6.029,0.008,0.031,-0.01,104.0,107.0,102.0,13.4,1505.3,325.6,-0.7,1.9,2470.299,13.33,0.032,14.5
2020-03-03T04:25:03,42.805,6.029,-0.054,0.019,-0.05,104.0,107.0,102.0,13.4,1505.3,324.8,-0.7,1.9,2470.322,13.33,0.057,289.4
2020-03-03T04:28:03,42.805,6.029,-0.032,0.019,-0.024,103.0,108.0,101.0,13.4,1505.3,327.4,-0.7,1.8,2470.289,13.33,0.037,300.7
2020-03-03T04:31:03,42.805,6.029,-0.033,0.005,-0.087,105.0,106.0,102.0,13.3,1505.3,325.7,-0.7,1.8,2470.259,13.33,0.033,278.6
2020-03-03T04:34:03,42.805,6.029,0.002,0.025,-0.037,108.0,108.0,101.0,13.4,1505.3,327.7,-0.7,1.9,2470.278,13.33,0.025,4.6
2020-03-03T04:37:03,42.805,6.029,-0.016,0.014,-0.018,106.0,108.0,101.0,13.4,1505.3,324.1,-0.7,1.8,2470.276,13.33,0.021,311.2
2020-03-03T04:40:03,42.805,6.029,-0.019,0.037,-0.027,104.0,107.0,103.0,13.4,1505.3,323.4,-0.7,1.8,2470.28,13.33,0.041,332.8
2020-03-03T04:43:03,42.805,6.029,0.004,0.028,-0.041,105.0,107.0,102.0,13.4,1505.3,327.5,-0.7,1.8,2470.281,13.33,0.028,8.1
2020-03-03T04:46:03,42.805,6.029,-0.031,0.026,-0.035,105.0,108.0,102.0,13.4,1505.4,325.9,-0.7,1.9,2470.282,13.34,0.04,310.0
2020-03-03T04:49:03,42.805,6.029,0.004,0.009,-0.02,105.0,107.0,102.0,13.4,1505.4,326.7,-0.7,1.9,2470.31,13.34,0.009,24.0
2020-03-03T04:52:03,42.805,6.029,-0.001,0.022,-0.019,106.0,108.0,103.0,13.4,1505.4,326.9,-0.7,1.8,2470.259,13.34,0.022,357.4
2020-03-03T04:55:03,42.805,6.029,-0.003,0.023,-0.017,104.0,108.0,101.0,13.4,1505.4,327.7,-0.7,1.8,2470.303,13.34,0.023,352.6
2020-03-03T04:58:03,42.805,6.029,0.008,0.039,-0.016,106.0,108.0,102.0,13.4,1505.4,326.0,-0.7,1.8,2470.246,13.34,0.039,11.6
2020-03-03T05:04:03,42.805,6.029,0.014,0.032,0.003,104.0,108.0,102.0,13.4,1505.3,322.7,-0.7,1.8,2470.351,13.32,0.034,23.6
2020-03-03T05:07:03,42.805,6.029,0.004,0.027,-0.035,107.0,108.0,103.0,13.3,1505.3,326.1,-0.7,1.9,2470.359,13.32,0.027,8.4
2020-03-03T05:10:03,42.805,6.029,-0.006,0.02,-0.035,106.0,109.0,102.0,13.4,1505.3,326.1,-0.7,1.8,2470.332,13.33,0.02,343.3
2020-03-03T05:13:03,42.805,6.029,-0.004,0.038,-0.02,105.0,109.0,102.0,13.4,1505.3,328.0,-0.7,1.8,2470.302,13.33,0.038,354.0
2020-03-03T05:16:03,42.805,6.029,0.0,0.017,-0.036,106.0,108.0,104.0,13.4,1505.3,323.7,-0.7,1.8,2470.305,13.33,0.017,0.0
2020-03-03T05:19:03,42.805,6.029,-0.018,0.005,-0.035,104.0,111.0,103.0,13.3,1505.4,323.4,-0.7,1.8,2470.308,13.34,0.018,285.5
2020-03-03T05:22:03,42.805,6.029,0.005,0.017,-0.044,106.0,109.0,102.0,13.4,1505.4,326.9,-0.7,1.8,2470.296,13.34,0.017,16.4
2020-03-03T05:25:03,42.805,6.029,-0.012,0.003,-0.045,106.0,109.0,105.0,13.4,1505.4,328.0,-0.7,1.8,2470.297,13.34,0.012,284.0
2020-03-03T05:28:03,42.805,6.029,-0.004,0.014,-0.046,106.0,109.0,104.0,13.4,1505.4,325.0,-0.7,1.9,2470.264,13.34,0.014,344.1
2020-03-03T05:31:03,42.805,6.029,-0.013,0.015,0.002,106.0,110.0,105.0,13.3,1505.4,328.1,-0.7,1.9,2470.315,13.34,0.019,319.1
2020-03-03T05:34:03,42.805,6.029,-0.021,0.028,-0.033,106.0,112.0,102.0,13.3,1505.4,324.2,-0.7,1.8,2470.273,13.34,0.035,323.1
2020-03-03T05:37:03,42.805,6.029,-0.008,0.028,-0.023,105.0,110.0,103.0,13.4,1505.4,324.8,-0.7,1.8,2470.287,13.34,0.029,344.1
2020-03-03T05:40:03,42.805,6.029,0.002,0.021,-0.009,106.0,110.0,103.0,13.4,1505.4,325.0,-0.7,1.8,2470.266,13.34,0.021,5.4
2020-03-03T05:43:03,42.805,6.029,-0.013,0.009,-0.008,106.0,110.0,103.0,13.4,1505.4,323.0,-0.7,1.8,2470.278,13.34,0.015,304.7
2020-03-03T05:46:03,42.805,6.029,0.016,0.029,-0.043,107.0,111.0,101.0,13.4,1505.4,322.8,-0.7,1.8,2470.27,13.34,0.033,28.9
2020-03-03T05:49:03,42.805,6.029,0.015,0.012,-0.019,107.0,110.0,103.0,13.4,1505.4,326.5,-0.8,1.8,2470.24,13.34,0.019,51.3
2020-03-03T05:52:03,42.805,6.029,-0.035,0.017,-0.015,106.0,110.0,102.0,13.4,1505.4,325.9,-0.7,1.8,2470.314,13.34,0.038,295.9
2020-03-03T05:55:03,42.805,6.029,0.004,0.024,-0.037,105.0,114.0,104.0,13.4,1505.4,327.9,-0.7,1.8,2470.287,13.34,0.024,9.5
2020-03-03T05:58:03,42.805,6.029,-0.003,0.019,-0.012,106.0,110.0,105.0,13.4,1505.4,326.8,-0.7,1.9,2470.299,13.34,0.019,351.0
2020-03-03T06:04:03,42.805,6.029,-0.034,0.01,-0.042,107.0,111.0,103.0,13.4,1505.3,325.3,-0.7,1.8,2470.315,13.33,0.035,286.4
2020-03-03T06:07:03,42.805,6.029,-0.037,0.018,-0.021,106.0,111.0,102.0,13.4,1505.3,326.3,-0.7,1.8,2470.268,13.33,0.041,295.9
2020-03-03T06:10:03,42.805,6.029,-0.024,0.043,-0.02,104.0,110.0,103.0,13.3,1505.3,324.2,-0.7,1.8,2470.274,13.33,0.049,330.8
2020-03-03T06:13:03,42.805,6.029,-0.014,0.033,-0.025,106.0,111.0,103.0,13.3,1505.4,324.0,-0.7,1.8,2470.249,13.34,0.035,337.0
2020-03-03T06:16:03,42.805,6.029,-0.017,-0.002,-0.066,105.0,111.0,103.0,13.4,1505.4,325.9,-0.7,1.8,2470.275,13.34,0.017,263.3
2020-03-03T06:19:03,42.805,6.029,-0.004,0.019,-0.046,105.0,110.0,104.0,13.4,1505.4,324.4,-0.7,1.8,2470.274,13.34,0.019,348.1
2020-03-03T06:22:03,42.805,6.029,-0.005,0.012,-0.035,106.0,110.0,103.0,13.3,1505.4,327.5,-0.7,1.9,2470.275,13.34,0.013,337.4
2020-03-03T06:25:03,42.805,6.029,-0.032,0.007,-0.031,107.0,110.0,104.0,13.3,1505.4,325.1,-0.7,1.8,2470.256,13.34,0.032,282.3
2020-03-03T06:28:03,42.805,6.029,0.011,0.026,-0.047,106.0,109.0,103.0,13.4,1505.4,323.8,-0.7,1.8,2470.282,13.34,0.028,22.9
2020-03-03T06:31:03,42.805,6.029,0.023,0.027,-0.004,106.0,110.0,102.0,13.3,1505.4,326.8,-0.7,1.8,2470.29,13.34,0.035,40.4
2020-03-03T06:34:03,42.805,6.029,0.004,0.016,-0.032,105.0,110.0,103.0,13.3,1505.4,325.4,-0.7,1.8,2470.275,13.35,0.016,14.0
2020-03-03T06:37:03,42.805,6.029,0.021,0.01,-0.018,107.0,110.0,101.0,13.4,1505.4,324.2,-0.7,1.8,2470.253,13.35,0.023,64.5
2020-03-03T06:40:03,42.805,6.029,0.037,0.019,0.007,105.0,109.0,105.0,13.4,1505.4,324.7,-0.7,1.8,2470.249,13.35,0.041,62.8
2020-03-03T06:43:03,42.805,6.029,0.024,0.043,0.016,107.0,110.0,102.0,13.4,1505.4,325.7,-0.7,1.8,2470.275,13.35,0.049,29.2
2020-03-03T06:46:03,42.805,6.029,-0.006,0.031,-0.013,107.0,109.0,102.0,13.3,1505.4,323.0,-0.7,1.8,2470.29,13.35,0.031,349.0
2020-03-03T06:49:03,42.805,6.029,0.001,0.029,-0.024,107.0,111.0,101.0,13.4,1505.4,327.5,-0.7,1.8,2470.276,13.35,0.029,2.0
2020-03-03T06:52:03,42.805,6.029,0.015,0.01,-0.039,106.0,110.0,105.0,13.3,1505.4,326.4,-0.7,1.8,2470.246,13.35,0.018,56.3
2020-03-03T06:55:03,42.805,6.029,-0.001,0.021,-0.047,105.0,110.0,103.0,13.4,1505.4,327.6,-0.7,1.8,2470.247,13.35,0.021,357.3
2020-03-03T06:58:03,42.805,6.029,-0.027,-0.001,-0.056,106.0,110.0,103.0,13.4,1505.4,325.0,-0.7,1.8,2470.247,13.35,0.027,267.9
2020-03-03T07:04:03,42.805,6.029,0.0,0.02,-0.016,105.0,111.0,103.0,13.4,1505.3,324.3,-0.7,1.8,2470.316,13.33,0.02,0.0
2020-03-03T07:07:03,42.805,6.029,-0.027,0.032,-0.07,106.0,111.0,102.0,13.3,1505.4,323.4,-0.7,1.8,2470.298,13.34,0.041,319.8
2020-03-03T07:10:03,42.805,6.029,-0.002,0.044,-0.003,106.0,110.0,103.0,13.4,1505.4,327.2,-0.7,1.8,2470.261,13.34,0.044,357.4
2020-03-03T07:13:03,42.805,6.029,-0.002,0.006,-0.037,107.0,111.0,102.0,13.4,1505.4,323.3,-0.7,1.9,2470.26,13.34,0.006,341.6
2020-03-03T07:16:03,42.805,6.029,0.007,0.024,-0.011,106.0,112.0,103.0,13.4,1505.4,328.8,-0.7,1.8,2470.288,13.34,0.025,16.3
2020-03-03T07:19:03,42.805,6.029,-0.011,0.021,-0.044,106.0,111.0,102.0,13.3,1505.4,324.3,-0.7,1.8,2470.303,13.35,0.023,332.4
2020-03-03T07:22:03,42.805,6.029,0.023,0.02,-0.014,106.0,112.0,102.0,13.4,1505.4,326.9,-0.7,1.8,2470.305,13.35,0.03,49.0
2020-03-03T07:25:03,42.805,6.029,-0.026,0.021,-0.06,105.0,112.0,102.0,13.4,1505.4,324.3,-0.7,1.8,2470.309,13.35,0.033,308.9
2020-03-03T07:28:03,42.805,6.029,-0.02,0.023,-0.056,105.0,112.0,101.0,13.4,1505.4,327.4,-0.7,1.8,2470.293,13.35,0.03,319.0
2020-03-03T07:31:03,42.805,6.029,0.022,0.016,-0.02,105.0,112.0,102.0,13.3,1505.4,325.9,-0.7,1.8,2470.277,13.35,0.027,54.0
2020-03-03T07:34:03,42.805,6.029,0.01,0.022,-0.025,105.0,112.0,102.0,13.4,1505.4,325.4,-0.7,1.8,2470.309,13.35,0.024,24.4
2020-03-03T07:37:03,42.805,6.029,0.001,0.008,-0.039,106.0,112.0,104.0,13.4,1505.4,326.2,-0.7,1.9,2470.292,13.34,0.008,7.1
2020-03-03T07:40:03,42.805,6.029,0.009,0.016,-0.027,105.0,112.0,103.0,13.4,1505.4,326.7,-0.7,1.8,2470.265,13.35,0.018,29.4
2020-03-03T07:43:03,42.805,6.029,0.017,0.011,-0.055,106.0,113.0,103.0,13.4,1505.4,323.0,-0.7,1.8,2470.231,13.35,0.02,57.1
2020-03-03T07:46:03,42.805,6.029,0.006,0.006,-0.017,105.0,113.0,102.0,13.3,1505.4,327.8,-0.7,1.8,2470.288,13.34,0.008,45.0
2020-03-03T07:49:03,42.805,6.029,0.011,0.028,-0.032,106.0,112.0,103.0,13.4,1505.4,324.1,-0.7,1.8,2470.216,13.34,0.03,21.4
2020-03-03T07:52:03,42.805,6.029,0.017,0.017,-0.037,105.0,111.0,103.0,13.4,1505.4,324.1,-0.7,1.9,2470.223,13.34,0.024,45.0
2020-03-03T07:55:03,42.805,6.029,0.003,0.005,-0.057,105.0,111.0,104.0,13.3,1505.4,328.2,-0.7,1.8,2470.268,13.34,0.005,31.0
2020-03-03T07:58:03,42.805,6.029,0.006,0.005,-0.018,108.0,111.0,103.0,13.4,1505.4,326.7,-0.7,1.8,2470.244,13.34,0.007,50.2
2020-03-03T08:04:03,42.805,6.029,0.0,0.026,-0.044,105.0,112.0,102.0,13.4,1505.3,324.7,-0.7,1.8,2470.354,13.32,0.026,0.0
2020-03-03T08:07:03,42.805,6.029,0.005,0.01,-0.007,106.0,111.0,101.0,13.4,1505.3,324.7,-0.7,1.8,2470.297,13.32,0.011,26.6
2020-03-03T08:10:03,42.805,6.029,0.018,0.018,-0.026,106.0,112.0,102.0,13.3,1505.3,327.4,-0.7,1.8,2470.292,13.33,0.025,45.0
2020-03-03T08:13:03,42.805,6.029,0.009,0.003,-0.038,104.0,110.0,102.0,13.3,1505.3,326.5,-0.7,1.8,2470.296,13.33,0.009,71.6
2020-03-03T08:16:03,42.805,6.029,0.009,0.005,0.001,107.0,110.0,102.0,13.4,1505.3,326.9,-0.7,1.9,2470.28,13.33,0.01,60.9
2020-03-03T08:19:03,42.805,6.029,-0.005,0.03,-0.005,107.0,111.0,101.0,13.4,1505.3,324.2,-0.7,1.8,2470.325,13.33,0.03,350.5
2020-03-03T08:22:03,42.805,6.029,0.001,0.01,-0.042,106.0,109.0,103.0,13.4,1505.3,324.3,-0.7,1.9,2470.29,13.33,0.01,5.7
2020-03-03T08:25:03,42.805,6.029,0.011,0.008,-0.05,107.0,110.0,102.0,13.4,1505.3,326.1,-0.7,1.9,2470.272,13.33,0.013,54.0
2020-03-03T08:28:03,42.805,6.029,0.011,0.007,-0.022,108.0,112.0,103.0,13.4,1505.3,328.1,-0.7,1.8,2470.26,13.33,0.013,57.5
2020-03-03T08:31:03,42.805,6.029,0.009,0.022,-0.002,109.0,111.0,104.0,13.3,1505.3,324.7,-0.7,1.9,2470.266,13.33,0.023,22.2
2020-03-03T08:34:03,42.805,6.029,0.008,0.005,-0.043,105.0,108.0,103.0,13.4,1505.3,326.7,-0.7,1.8,2470.263,13.33,0.009,58.0
2020-03-03T08:37:03,42.805,6.029,0.037,-0.002,0.004,106.0,110.0,103.0,13.4,1505.3,327.3,-0.7,1.8,2470.271,13.33,0.037,93.1
2020-03-03T08:40:03,42.805,6.029,0.049,-0.005,-0.03,107.0,108.0,104.0,13.4,1505.3,328.3,-0.7,1.8,2470.221,13.33,0.049,95.8
2020-03-03T08:43:03,42.805,6.029,0.028,0.016,-0.041,106.0,110.0,101.0,13.4,1505.3,322.8,-0.7,1.8,2470.225,13.33,0.032,60.3
2020-03-03T08:46:03,42.805,6.029,0.023,0.006,0.003,106.0,110.0,103.0,13.3,1505.3,326.6,-0.7,1.8,2470.255,13.33,0.023,75.4
2020-03-03T08:49:03,42.805,6.029,0.041,0.023,-0.003,106.0,109.0,103.0,13.4,1505.3,325.9,-0.7,1.8,2470.272,13.33,0.047,60.7
2020-03-03T08:52:03,42.805,6.029,0.044,0.007,-0.012,105.0,109.0,101.0,13.4,1505.3,324.5,-0.7,1.8,2470.256,13.33,0.044,81.0
2020-03-03T08:55:03,42.805,6.029,0.031,0.0,-0.019,107.0,111.0,102.0,13.4,1505.3,324.8,-0.7,1.8,2470.24,13.33,0.03,90.0
2020-03-03T08:58:03,42.805,6.029,0.037,0.003,-0.02,107.0,111.0,102.0,13.4,1505.3,328.8,-0.7,1.9,2470.258,13.33,0.037,85.4
2020-03-03T09:04:03,42.805,6.029,0.076,0.017,0.046,104.0,109.0,102.0,13.3,1505.3,323.7,-0.7,1.8,2470.316,13.31,0.077,77.4
2020-03-03T09:07:03,42.805,6.029,0.058,0.006,0.005,106.0,109.0,103.0,13.4,1505.3,324.4,-0.7,1.8,2470.282,13.32,0.058,84.1
2020-03-03T09:10:03,42.805,6.029,0.001,-0.007,-0.009,105.0,109.0,104.0,13.4,1505.3,324.9,-0.7,1.8,2470.28,13.32,0.007,171.9
2020-03-03T09:13:03,42.805,6.029,0.042,0.006,-0.007,104.0,109.0,102.0,13.3,1505.3,326.8,-0.7,1.9,2470.289,13.32,0.042,81.9
2020-03-03T09:16:03,42.805,6.029,0.026,0.018,-0.027,105.0,109.0,104.0,13.3,1505.3,324.9,-0.7,1.8,2470.272,13.33,0.031,55.3
2020-03-03T09:19:03,42.805,6.029,0.018,-0.004,-0.026,105.0,107.0,103.0,13.3,1505.3,323.1,-0.7,1.8,2470.287,13.33,0.018,102.5
2020-03-03T09:22:03,42.805,6.029,0.049,0.0,0.021,106.0,110.0,104.0,13.4,1505.3,326.6,-0.7,1.8,2470.288,13.33,0.049,90.0
2020-03-03T09:25:03,42.805,6.029,0.041,0.012,-0.004,104.0,108.0,103.0,13.4,1505.3,326.0,-0.7,1.8,2470.252,13.33,0.042,73.7
2020-03-03T09:28:03,42.805,6.029,0.012,0.008,-0.026,103.0,109.0,104.0,13.4,1505.3,326.5,-0.7,1.8,2470.301,13.33,0.014,56.3
2020-03-03T09:31:03,42.805,6.029,0.034,0.004,-0.042,105.0,109.0,101.0,13.4,1505.3,324.0,-0.7,1.8,2470.279,13.33,0.034,83.3
2020-03-03T09:34:03,42.805,6.029,0.018,0.008,-0.049,104.0,108.0,103.0,13.4,1505.3,327.9,-0.7,1.9,2470.281,13.33,0.019,66.0
2020-03-03T09:37:03,42.805,6.029,0.047,-0.003,-0.002,105.0,107.0,101.0,13.3,1505.3,324.4,-0.7,1.8,2470.257,13.33,0.047,93.6
2020-03-03T09:40:03,42.805,6.029,0.007,-0.001,-0.031,105.0,110.0,103.0,13.3,1505.3,323.6,-0.7,1.8,2470.281,13.33,0.007,98.1
2020-03-03T09:43:03,42.805,6.029,0.009,0.001,-0.016,105.0,109.0,102.0,13.3,1505.3,328.3,-0.7,1.8,2470.279,13.33,0.009,83.7
2020-03-03T09:46:03,42.805,6.029,0.022,0.012,-0.034,106.0,109.0,102.0,13.4,1505.3,326.6,-0.7,1.8,2470.267,13.33,0.025,61.4
2020-03-03T09:49:03,42.805,6.029,0.015,-0.014,-0.03,105.0,107.0,102.0,13.4,1505.3,323.5,-0.7,1.8,2470.25,13.33,0.02,133.0
2020-03-03T09:52:03,42.805,6.029,0.003,0.017,-0.007,105.0,107.0,102.0,13.4,1505.3,324.6,-0.7,1.8,2470.26,13.33,0.017,10.0